Location: Staunton
(38.1490°N, 79.0720°W)
Time: 09:17:21
(UTC-04:00)

ISS - Pass Details

Date: 12 October 2017
Orbit: 401 x 408 km, 51.6° (Epoch: 18 October)

Event Time Altitude Azimuth Distance (km) Brightness Sun altitude
Rises 21:10:31 0° 302° (WNW) 2,324 1.1 -29.8°
Reaches altitude 10° 21:12:42 10° 293° (WNW) 1,462 -0.1 -30.2°
Enters shadow 21:13:12 13° 289° (WNW) 1,275 -0.5 -30.3°
